Location: Augustenthal
(51.7167°N, 10.2833°E)
Time: 14:13:16
(UTC+00:00)

SPOT 3 Rocket - Pass Details

Date: 18 May 2021
Orbit: 779 x 794 km, 98.7° (Epoch: 19 June)

Event Time Altitude Azimuth Distance (km) Brightness Sun altitude
Exits shadow 19:41:45 - 160° (SSE) 3,125 6.1 -4.7°
Reaches altitude 10° 19:43:43 10° 160° (SSE) 2,331 5.5 -5.0°
Maximum altitude 19:48:52 85° 73° (ENE) 791 3.6 -5.6°
Drops below altitude 10° 19:54:03 10° 346° (NNW) 2,346 7.0 -6.2°
Sets 19:56:23 0° 346° (NNW) 3,279 7.9 -6.4°
